Theta_e
323 321 320 323 321 320 319 320 325 325 325 324 324 325 328 327 327 328 327 328 325 327
323 324 322 324 325 322 324 322 324 324 324 324 323 323 325 321 325 327 326 325 324 322
324 324 325 327 324 324 325 325 325 324 324 323 323 323 324 322 323 323 322 323 325 324
323 323 324 324 324 325 325 325 323 323 322 321 321 322 322 322 320 320 322 323 321 321
323 324 325 324 325 325 324 325 324 323 322 320 319 321 319 318 319 319 319 320 321 319
322 324 324 325 326 326 325 325 324 323 322 320 320 319 318 318 318 319 319 320 320 320
320 320 320 322 325 325 324 323 323 323 321 321 319 318 317 316 317 318 319 320 319 320
320 317 316 318 317 314 316 315 318 319 319 319 318 314 314 315 316 318 319 319 319 320
316 311 310 310 309 310 310 314 313 316 316 316 315 303 303 307 315 317 316 316 319 320
314 313 314 312 310 310 310 311 311 313 314 314 315 301 300 303 313 315 315 315 315 314
311 309 311 312 310 313 313 313 313 313 313 313 309 300 299 301 312 313 314 314 314 314
311 310 310 311 311 312 312 312 312 311 311 311 311 300 298 302 310 309 311 312 312 312
310 309 309 310 310 311 311 310 309 309 309 309 310 298 298 301 306 306 305 309 311 302
309 309 309 309 310 309 308 308 307 306 307 307 306 306 298 297 303 302 302 304 306 307
Wind_Speed
4 5 4 6 5 6 5 6 7 8 9 11 11 11 10 5 7 9 7 7 7 8
4 5 5 4 3 4 5 5 7 7 8 10 10 11 11 8 8 9 6 6 9 7
3 1 1 2 3 4 4 5 6 7 8 9 10 11 11 9 8 9 8 7 8 7
4 3 3 4 5 6 6 6 7 7 8 9 10 11 11 11 10 10 9 8 9 10
5 5 6 6 7 8 9 9 9 8 8 9 10 11 13 13 12 11 11 9 9 9
7 6 6 7 8 9 10 10 10 9 8 9 10 11 12 12 14 13 12 10 10 9
5 8 8 9 10 9 8 9 9 10 10 11 11 13 11 14 13 13 12 11 10 9
4 6 7 8 9 9 9 11 11 12 12 12 12 9 11 12 13 13 12 11 10 7
7 5 4 3 5 4 5 10 8 13 14 12 10 10 12 11 13 11 11 11 12 14
5 3 3 5 4 6 6 8 8 12 13 11 10 9 10 13 13 11 10 10 11 11
5 5 6 8 7 10 10 10 10 10 10 9 4 8 9 15 14 11 11 11 10 9
5 7 9 9 10 9 9 9 9 7 7 9 8 7 7 13 12 11 11 11 11 8
7 8 9 10 10 10 10 11 8 7 8 7 10 9 7 11 10 10 10 12 7 14
6 7 7 9 10 9 9 8 8 10 8 7 6 5 8 9 9 8 10 10 8 4
Wind_Direction
57 67 69 61 28 36 33 39 24 24 20 13 7 358 355 351 355 359 347 337 341 340
85 48 57 54 343 34 20 13 19 11 11 10 10 2 348 3 334 334 347 339 344 316
133 126 26 328 342 340 338 338 340 350 354 357 0 1 347 345 348 331 327 319 329 328
237 246 267 287 300 306 308 308 318 329 337 344 346 352 342 336 331 327 323 319 326 324
249 265 277 285 295 300 296 298 299 304 315 328 336 339 337 331 331 325 319 315 309 315
245 260 280 290 295 297 299 294 294 296 304 319 326 327 325 336 329 322 316 309 307 307
308 320 322 320 317 320 318 303 295 306 313 317 321 319 344 335 325 316 311 306 299 296
1 32 14 44 4 13 3 342 334 314 311 319 319 8 359 335 318 311 316 308 303 299
82 69 56 17 329 330 339 306 312 321 311 316 312 29 5 334 316 321 326 327 336 333
71 39 4 326 318 308 316 305 312 296 298 310 311 47 355 338 313 315 332 331 334 330
10 342 318 306 294 322 313 309 304 306 312 319 46 60 3 333 301 314 314 315 311 315
326 321 324 330 328 319 317 312 311 326 329 333 334 68 23 326 312 325 313 308 311 324
340 328 324 331 321 319 313 304 329 347 326 306 295 84 38 354 323 337 327 307 338 69
337 325 319 319 314 320 319 338 329 331 332 16 6 33 49 8 334 335 315 315 320 347